Year,Month,Day,Hour,Minute,Value (Times are PST for temperature in C)
2011,09,25,00,02,12.10
2011,09,25,00,04,12.10
2011,09,25,00,05,12.10
2011,09,25,00,06,12.10
2011,09,25,00,07,12.10
2011,09,25,00,09,12.10
2011,09,25,00,10,12.10
2011,09,25,00,11,12.10
2011,09,25,00,12,12.10
2011,09,25,00,13,12.10
2011,09,25,00,14,12.20
2011,09,25,00,15,12.20
2011,09,25,00,16,12.20
2011,09,25,00,18,12.20
2011,09,25,00,19,12.20
2011,09,25,00,20,12.20
2011,09,25,00,21,12.20
2011,09,25,00,23,12.20
2011,09,25,00,24,12.30
2011,09,25,00,25,12.30
2011,09,25,00,26,12.30
2011,09,25,00,27,12.30
2011,09,25,00,28,12.30
2011,09,25,00,29,12.30
2011,09,25,00,30,12.30
2011,09,25,00,32,12.40
2011,09,25,00,33,12.40
2011,09,25,00,34,12.40
2011,09,25,00,35,12.40
2011,09,25,00,37,12.40
2011,09,25,00,38,12.40
2011,09,25,00,39,12.40
2011,09,25,00,40,12.40
2011,09,25,00,42,12.40
2011,09,25,00,43,12.40
2011,09,25,00,44,12.40
2011,09,25,00,45,12.40
2011,09,25,00,47,12.40
2011,09,25,00,48,12.40
2011,09,25,00,49,12.40
2011,09,25,00,50,12.30
2011,09,25,00,52,12.30
2011,09,25,00,53,12.30
2011,09,25,00,54,12.30
2011,09,25,00,55,12.40
2011,09,25,00,57,12.40
2011,09,25,00,58,12.40
2011,09,25,00,59,12.30
2011,09,25,01,00,12.30
2011,09,25,01,01,12.30
2011,09,25,01,02,12.30
2011,09,25,01,03,12.40
2011,09,25,01,04,12.30
2011,09,25,01,05,12.30
2011,09,25,01,06,12.30
2011,09,25,01,08,12.30
2011,09,25,01,09,12.30
2011,09,25,01,10,12.30
2011,09,25,01,11,12.30
2011,09,25,01,13,12.30
2011,09,25,01,14,12.30
2011,09,25,01,15,12.30
2011,09,25,01,16,12.30
2011,09,25,01,17,12.30
2011,09,25,01,18,12.30
2011,09,25,01,19,12.30
2011,09,25,01,20,12.30
2011,09,25,01,22,12.30
2011,09,25,01,23,12.30
2011,09,25,01,24,12.40
2011,09,25,01,25,12.40
2011,09,25,01,27,12.40
2011,09,25,01,28,12.40
2011,09,25,01,29,12.40
2011,09,25,01,30,12.40
2011,09,25,01,32,12.40
2011,09,25,01,33,12.40
2011,09,25,01,34,12.50
2011,09,25,01,35,12.60
2011,09,25,01,36,12.60
2011,09,25,01,37,12.70
2011,09,25,01,38,12.70
2011,09,25,01,39,12.80
2011,09,25,01,41,12.80
2011,09,25,01,42,12.90
2011,09,25,01,43,13.00
2011,09,25,01,44,13.10
2011,09,25,01,46,13.10
2011,09,25,01,47,13.10
2011,09,25,01,48,13.20
2011,09,25,01,49,13.20
2011,09,25,01,51,13.20
2011,09,25,01,52,13.20
2011,09,25,01,53,13.30
2011,09,25,01,54,13.30
2011,09,25,01,55,13.30
2011,09,25,01,56,13.30
2011,09,25,01,58,13.40
2011,09,25,02,00,13.40
2011,09,25,02,01,13.40
2011,09,25,02,02,13.50
2011,09,25,02,04,13.60
2011,09,25,02,05,13.60
2011,09,25,02,06,13.60
2011,09,25,02,07,13.60
2011,09,25,02,09,13.60
2011,09,25,02,10,13.70
2011,09,25,02,11,13.70
2011,09,25,02,12,13.70
2011,09,25,02,13,13.70
2011,09,25,02,15,13.70
2011,09,25,02,16,13.70
2011,09,25,02,17,13.70
2011,09,25,02,18,13.70
2011,09,25,02,19,13.70
2011,09,25,02,21,13.70
2011,09,25,02,22,13.70
2011,09,25,02,23,13.70
2011,09,25,02,24,13.70
2011,09,25,02,25,13.70
2011,09,25,02,26,13.70
2011,09,25,02,27,13.60
2011,09,25,02,28,13.60
2011,09,25,02,29,13.60
2011,09,25,02,31,13.50
2011,09,25,02,32,13.40
2011,09,25,02,33,13.30
2011,09,25,02,34,13.30
2011,09,25,02,35,13.20
2011,09,25,02,36,13.20
2011,09,25,02,37,13.30
2011,09,25,02,38,13.30
2011,09,25,02,39,13.30
2011,09,25,02,41,13.30
2011,09,25,02,42,13.30
2011,09,25,02,43,13.40
2011,09,25,02,45,13.40
2011,09,25,02,46,13.40
2011,09,25,02,47,13.40
2011,09,25,02,49,13.40
2011,09,25,02,50,13.50
2011,09,25,02,51,13.60
2011,09,25,02,53,13.60
2011,09,25,02,54,13.80
2011,09,25,02,55,13.80
2011,09,25,02,56,13.90
2011,09,25,02,57,13.90
2011,09,25,02,59,14.00
2011,09,25,03,00,14.10
2011,09,25,03,01,14.10
2011,09,25,03,02,14.20
2011,09,25,03,04,14.20
2011,09,25,03,05,14.30
2011,09,25,03,06,14.30
2011,09,25,03,07,14.40
2011,09,25,03,08,14.60
2011,09,25,03,09,14.70
2011,09,25,03,11,14.90
2011,09,25,03,12,15.20
2011,09,25,03,13,15.30
2011,09,25,03,14,15.30
2011,09,25,03,15,15.40
2011,09,25,03,16,15.40
2011,09,25,03,17,15.50
2011,09,25,03,18,15.60
2011,09,25,03,20,15.70
2011,09,25,03,21,15.80
2011,09,25,03,22,15.80
2011,09,25,03,23,15.90
2011,09,25,03,24,15.90
2011,09,25,03,25,15.90
2011,09,25,03,26,15.90
2011,09,25,03,27,15.90
2011,09,25,03,28,15.90
2011,09,25,03,30,15.90
2011,09,25,03,31,15.80
2011,09,25,03,32,15.80
2011,09,25,03,33,15.80
2011,09,25,03,35,15.70
2011,09,25,03,36,15.70
2011,09,25,03,37,15.60
2011,09,25,03,38,15.60
2011,09,25,03,40,15.60
2011,09,25,03,41,15.40
2011,09,25,03,42,15.40
2011,09,25,03,43,15.40
2011,09,25,03,45,15.30
2011,09,25,03,46,15.30
2011,09,25,03,47,15.20
2011,09,25,03,48,15.20
2011,09,25,03,49,15.20
2011,09,25,03,50,15.10
2011,09,25,03,51,15.10
2011,09,25,03,52,15.10
2011,09,25,03,53,15.00
2011,09,25,03,54,15.00
2011,09,25,03,56,14.90
2011,09,25,03,57,14.90
2011,09,25,03,58,15.00
2011,09,25,03,59,15.00
2011,09,25,04,00,15.00
2011,09,25,04,02,15.10
2011,09,25,04,03,15.10
2011,09,25,04,04,15.10
2011,09,25,04,05,15.10
2011,09,25,04,07,15.10
2011,09,25,04,08,15.10
2011,09,25,04,09,15.10
2011,09,25,04,11,15.10
2011,09,25,04,12,15.10
2011,09,25,04,13,15.20
2011,09,25,04,14,15.20
2011,09,25,04,15,15.20
2011,09,25,04,17,15.20
2011,09,25,04,18,15.20
2011,09,25,04,19,15.20
2011,09,25,04,20,15.30
2011,09,25,04,22,15.30
2011,09,25,04,23,15.30
2011,09,25,04,24,15.30
2011,09,25,04,25,15.30
2011,09,25,04,26,15.30
2011,09,25,04,28,15.30
2011,09,25,04,29,15.30
2011,09,25,04,30,15.30
2011,09,25,04,31,15.30
2011,09,25,04,32,15.20
2011,09,25,04,34,15.20
2011,09,25,04,35,15.20
2011,09,25,04,36,15.10
2011,09,25,04,38,15.10
2011,09,25,04,39,15.10
2011,09,25,04,40,15.00
2011,09,25,04,41,14.90
2011,09,25,04,42,14.90
2011,09,25,04,43,14.90
2011,09,25,04,44,14.90
2011,09,25,04,45,14.90
2011,09,25,04,46,14.90
2011,09,25,04,47,15.00
2011,09,25,04,49,15.10
2011,09,25,04,50,15.20
2011,09,25,04,51,15.20
2011,09,25,04,52,15.30
2011,09,25,04,53,15.40
2011,09,25,04,54,15.40
2011,09,25,04,55,15.50
2011,09,25,04,56,15.50
2011,09,25,04,57,15.60
2011,09,25,04,59,15.60
2011,09,25,05,00,15.70
2011,09,25,05,01,15.70
2011,09,25,05,02,15.70
2011,09,25,05,04,15.70
2011,09,25,05,05,15.70
2011,09,25,05,06,15.70
2011,09,25,05,07,15.60
2011,09,25,05,08,15.60
2011,09,25,05,09,15.40
2011,09,25,05,10,15.40
2011,09,25,05,11,15.30
2011,09,25,05,12,15.20
2011,09,25,05,13,15.20
2011,09,25,05,14,15.10
2011,09,25,05,15,15.10
2011,09,25,05,16,15.00
2011,09,25,05,17,14.90
2011,09,25,05,18,14.90
2011,09,25,05,19,14.80
2011,09,25,05,21,14.80
2011,09,25,05,22,14.70
2011,09,25,05,23,14.70
2011,09,25,05,24,14.70
2011,09,25,05,25,14.60
2011,09,25,05,26,14.60
2011,09,25,05,27,14.50
2011,09,25,05,28,14.40
2011,09,25,05,30,14.30
2011,09,25,05,31,14.30
2011,09,25,05,32,14.20
2011,09,25,05,34,14.20
2011,09,25,05,35,14.10
2011,09,25,05,36,14.00
2011,09,25,05,37,13.90
2011,09,25,05,38,13.90
2011,09,25,05,39,13.90
2011,09,25,05,40,13.80
2011,09,25,05,41,13.80
2011,09,25,05,42,13.80
2011,09,25,05,44,13.70
2011,09,25,05,45,13.70
2011,09,25,05,46,13.70
2011,09,25,05,47,13.60
2011,09,25,05,48,13.60
2011,09,25,05,49,13.60
2011,09,25,05,50,13.60
2011,09,25,05,51,13.60
2011,09,25,05,53,13.50
2011,09,25,05,54,13.50
2011,09,25,05,55,13.40
2011,09,25,05,57,13.40
2011,09,25,05,58,13.40
2011,09,25,05,59,13.30
2011,09,25,06,00,13.30
2011,09,25,06,01,13.30
2011,09,25,06,02,13.30
2011,09,25,06,03,13.30
2011,09,25,06,04,13.20
2011,09,25,06,06,13.20
2011,09,25,06,07,13.20
2011,09,25,06,08,13.20
2011,09,25,06,09,13.10
2011,09,25,06,11,13.10
2011,09,25,06,12,13.10
2011,09,25,06,13,13.10
2011,09,25,06,14,13.10
2011,09,25,06,15,13.00
2011,09,25,06,17,13.00
2011,09,25,06,18,13.00
2011,09,25,06,19,13.00
2011,09,25,06,20,13.00
2011,09,25,06,21,12.90
2011,09,25,06,23,12.90
2011,09,25,06,24,12.90
2011,09,25,06,25,12.90
2011,09,25,06,26,12.90
2011,09,25,06,28,12.90
2011,09,25,06,29,12.90
2011,09,25,06,30,12.90
2011,09,25,06,31,12.80
2011,09,25,06,32,12.80
2011,09,25,06,34,12.80
2011,09,25,06,35,12.80
2011,09,25,06,36,12.80
2011,09,25,06,37,12.70
2011,09,25,06,39,12.70
2011,09,25,06,40,12.70
2011,09,25,06,41,12.70
2011,09,25,06,42,12.60
2011,09,25,06,44,12.60
2011,09,25,06,45,12.60
2011,09,25,06,46,12.60
2011,09,25,06,48,12.60
2011,09,25,06,49,12.60
2011,09,25,06,50,12.50
2011,09,25,06,51,12.50
2011,09,25,06,52,12.50
2011,09,25,06,53,12.50
2011,09,25,06,54,12.50
2011,09,25,06,55,12.60
2011,09,25,06,56,12.50
2011,09,25,06,58,12.50
2011,09,25,06,59,12.50
2011,09,25,07,00,12.50
2011,09,25,07,01,12.50
2011,09,25,07,02,12.50
2011,09,25,07,04,12.50
2011,09,25,07,05,12.50
2011,09,25,07,06,12.50
2011,09,25,07,07,12.40
2011,09,25,07,09,12.40
2011,09,25,07,10,12.40
2011,09,25,07,11,12.40
2011,09,25,07,12,12.40
2011,09,25,07,14,12.30
2011,09,25,07,15,12.30
2011,09,25,07,16,12.30
2011,09,25,07,17,12.30
2011,09,25,07,18,12.30
2011,09,25,07,20,12.30
2011,09,25,07,21,12.30
2011,09,25,07,22,12.30
2011,09,25,07,23,12.30
2011,09,25,07,25,12.30
2011,09,25,07,26,12.30
2011,09,25,07,27,12.30
2011,09,25,07,28,12.30
2011,09,25,07,29,12.30
2011,09,25,07,31,12.30
2011,09,25,07,32,12.30
2011,09,25,07,33,12.30
2011,09,25,07,34,12.30
2011,09,25,07,35,12.30
2011,09,25,07,37,12.30
2011,09,25,07,38,12.20
2011,09,25,07,39,12.20
2011,09,25,07,40,12.30
2011,09,25,07,42,12.20
2011,09,25,07,43,12.20
2011,09,25,07,44,12.20
2011,09,25,07,45,12.20
2011,09,25,07,46,12.20
2011,09,25,07,48,12.20
2011,09,25,07,49,12.20
2011,09,25,07,50,12.20
2011,09,25,07,52,12.20
2011,09,25,07,53,12.10
2011,09,25,07,54,12.10
2011,09,25,07,55,12.10
2011,09,25,07,56,12.10
2011,09,25,07,58,12.10
2011,09,25,07,59,12.10
2011,09,25,08,00,12.10
2011,09,25,08,01,12.10
2011,09,25,08,03,12.00
2011,09,25,08,04,12.00
2011,09,25,08,05,11.90
2011,09,25,08,06,11.90
2011,09,25,08,08,11.90
2011,09,25,08,09,11.90
2011,09,25,08,10,12.00
2011,09,25,08,11,12.00
2011,09,25,08,12,12.10
2011,09,25,08,14,12.10
2011,09,25,08,15,12.10
2011,09,25,08,16,12.20
2011,09,25,08,17,12.20
2011,09,25,08,19,12.20
2011,09,25,08,20,12.20
2011,09,25,08,21,12.30
2011,09,25,08,22,12.30
2011,09,25,08,24,12.30
2011,09,25,08,25,12.30
2011,09,25,08,26,12.40
2011,09,25,08,27,12.40
2011,09,25,08,29,12.40
2011,09,25,08,30,12.40
2011,09,25,08,31,12.40
2011,09,25,08,33,12.40
2011,09,25,08,34,12.50
2011,09,25,08,35,12.50
2011,09,25,08,37,12.60
2011,09,25,08,38,12.60
2011,09,25,08,39,12.60
2011,09,25,08,40,12.60
2011,09,25,08,41,12.60
2011,09,25,08,42,12.60
2011,09,25,08,43,12.60
2011,09,25,08,44,12.60
2011,09,25,08,45,12.60
2011,09,25,08,47,12.70
2011,09,25,08,48,12.70
2011,09,25,08,49,12.70
2011,09,25,08,50,12.70
2011,09,25,08,52,12.70
2011,09,25,08,53,12.70
2011,09,25,08,54,12.70
2011,09,25,08,55,12.70
2011,09,25,08,56,12.80
2011,09,25,08,57,12.80
2011,09,25,08,58,12.80
2011,09,25,08,59,12.80
2011,09,25,09,01,12.90
2011,09,25,09,02,12.90
2011,09,25,09,03,12.90
2011,09,25,09,04,12.90
2011,09,25,09,06,13.00
2011,09,25,09,07,13.00
2011,09,25,09,08,13.10
2011,09,25,09,09,13.10
2011,09,25,09,10,13.10
2011,09,25,09,12,13.10
2011,09,25,09,13,13.10
2011,09,25,09,14,13.10
2011,09,25,09,15,13.10
2011,09,25,09,17,13.10
2011,09,25,09,18,13.10
2011,09,25,09,19,13.10
2011,09,25,09,20,13.10
2011,09,25,09,21,13.10
2011,09,25,09,22,13.10
2011,09,25,09,23,13.20
2011,09,25,09,24,13.20
2011,09,25,09,25,13.20
2011,09,25,09,26,13.20
2011,09,25,09,27,13.20
2011,09,25,09,28,13.20
2011,09,25,09,29,13.20
2011,09,25,09,30,13.30
2011,09,25,09,31,13.30
2011,09,25,09,32,13.30
2011,09,25,09,33,13.30
2011,09,25,09,34,13.30
2011,09,25,09,35,13.30
2011,09,25,09,36,13.30
2011,09,25,09,37,13.30
2011,09,25,09,38,13.30
2011,09,25,09,39,13.40
2011,09,25,09,41,13.40
2011,09,25,09,42,13.50
2011,09,25,09,43,13.60
2011,09,25,09,44,13.60
2011,09,25,09,45,13.60
2011,09,25,09,47,13.70
2011,09,25,09,48,13.70
2011,09,25,09,49,13.70
2011,09,25,09,50,13.70
2011,09,25,09,51,13.70
2011,09,25,09,52,13.70
2011,09,25,09,53,13.70
2011,09,25,09,54,13.70
2011,09,25,09,55,13.70
2011,09,25,09,56,13.70
2011,09,25,09,57,13.70
2011,09,25,09,58,13.70
2011,09,25,10,00,13.70
2011,09,25,10,01,13.70
2011,09,25,10,02,13.70
2011,09,25,10,03,13.70
2011,09,25,10,05,13.70
2011,09,25,10,06,13.70
2011,09,25,10,07,13.60
2011,09,25,10,08,13.70
2011,09,25,10,09,13.70
2011,09,25,10,11,13.70
2011,09,25,10,12,13.70
2011,09,25,10,13,13.70
2011,09,25,10,14,13.70
2011,09,25,10,16,13.80
2011,09,25,10,17,13.80
2011,09,25,10,18,13.90
2011,09,25,10,20,13.90
2011,09,25,10,21,14.10
2011,09,25,10,22,14.20
2011,09,25,10,23,14.30
2011,09,25,10,24,14.40
2011,09,25,10,26,14.50
2011,09,25,10,27,14.60
2011,09,25,10,28,14.70
2011,09,25,10,29,14.70
2011,09,25,10,30,14.80
2011,09,25,10,31,14.80
2011,09,25,10,32,14.90
2011,09,25,10,33,14.90
2011,09,25,10,34,14.90
2011,09,25,10,35,14.90
2011,09,25,10,36,14.90
2011,09,25,10,37,14.80
2011,09,25,10,38,14.80
2011,09,25,10,40,14.70
2011,09,25,10,41,14.70
2011,09,25,10,42,14.60
2011,09,25,10,43,14.60
2011,09,25,10,44,14.60
2011,09,25,10,45,14.50
2011,09,25,10,46,14.50
2011,09,25,10,47,14.40
2011,09,25,10,48,14.40
2011,09,25,10,49,14.40
2011,09,25,10,50,14.40
2011,09,25,10,52,14.40
2011,09,25,10,53,14.40
2011,09,25,10,54,14.30
2011,09,25,10,55,14.30
2011,09,25,10,57,14.30
2011,09,25,10,58,14.20
2011,09,25,10,59,14.20
2011,09,25,11,00,14.20
2011,09,25,11,02,14.20
2011,09,25,11,03,14.20
2011,09,25,11,04,14.20
2011,09,25,11,06,14.20
2011,09,25,11,07,14.10
2011,09,25,11,08,14.20
2011,09,25,11,09,14.20
2011,09,25,11,11,14.20
2011,09,25,11,12,14.20
2011,09,25,11,13,14.20
2011,09,25,11,14,14.30
2011,09,25,11,15,14.30
2011,09,25,11,16,14.30
2011,09,25,11,17,14.30
2011,09,25,11,18,14.30
2011,09,25,11,19,14.40
2011,09,25,11,20,14.40
2011,09,25,11,21,14.50
2011,09,25,11,22,14.50
2011,09,25,11,23,14.60
2011,09,25,11,24,14.70
2011,09,25,11,25,14.70
2011,09,25,11,26,14.80
2011,09,25,11,27,14.80
2011,09,25,11,28,14.80
2011,09,25,11,29,14.90
2011,09,25,11,30,14.90
2011,09,25,11,31,15.10
2011,09,25,11,32,15.10
2011,09,25,11,34,15.20
2011,09,25,11,35,15.30
2011,09,25,11,36,15.30
2011,09,25,11,37,15.30
2011,09,25,11,39,15.40
2011,09,25,11,40,15.40
2011,09,25,11,41,15.50
2011,09,25,11,43,15.50
2011,09,25,11,44,15.60
2011,09,25,11,45,15.60
2011,09,25,11,46,15.70
2011,09,25,11,47,15.70
2011,09,25,11,48,15.70
2011,09,25,11,49,15.80
2011,09,25,11,50,15.80
2011,09,25,11,51,15.90
2011,09,25,11,53,15.90
2011,09,25,11,54,16.00
2011,09,25,11,55,16.10
2011,09,25,11,56,16.10
2011,09,25,11,58,16.10
2011,09,25,11,59,16.10
2011,09,25,12,00,16.00
2011,09,25,12,01,15.90
2011,09,25,12,03,15.90
2011,09,25,12,04,15.80
2011,09,25,12,05,15.80
2011,09,25,12,06,15.80
2011,09,25,12,08,15.70
2011,09,25,12,09,15.70
2011,09,25,12,10,15.70
2011,09,25,12,11,15.70
2011,09,25,12,13,15.70
2011,09,25,12,14,15.70
2011,09,25,12,15,15.80
2011,09,25,12,16,15.80
2011,09,25,12,18,15.80
2011,09,25,12,19,15.80
2011,09,25,12,20,15.80
2011,09,25,12,21,15.90
2011,09,25,12,22,15.90
2011,09,25,12,24,15.90
2011,09,25,12,25,15.90
2011,09,25,12,26,16.00
2011,09,25,12,27,16.10
2011,09,25,12,28,16.10
2011,09,25,12,30,16.10
2011,09,25,12,31,16.20
2011,09,25,12,32,16.30
2011,09,25,12,34,16.30
2011,09,25,12,35,16.40
2011,09,25,12,36,16.40
2011,09,25,12,37,16.60
2011,09,25,12,38,16.60
2011,09,25,12,40,16.60
2011,09,25,12,41,16.60
2011,09,25,12,42,16.60
2011,09,25,12,43,16.60
2011,09,25,12,45,16.60
2011,09,25,12,46,16.60
2011,09,25,12,47,16.50
2011,09,25,12,48,16.50
2011,09,25,12,49,16.40
2011,09,25,12,50,16.50
2011,09,25,12,51,16.40
2011,09,25,12,52,16.40
2011,09,25,12,53,16.40
2011,09,25,12,54,16.40
2011,09,25,12,55,16.40
2011,09,25,12,56,16.40
2011,09,25,12,57,16.40
2011,09,25,12,58,16.40
2011,09,25,12,59,16.40
2011,09,25,13,00,16.40
2011,09,25,13,01,16.40
2011,09,25,13,02,16.40
2011,09,25,13,03,16.40
2011,09,25,13,05,16.40
2011,09,25,13,06,16.40
2011,09,25,13,07,16.40
2011,09,25,13,08,16.40
2011,09,25,13,09,16.40
2011,09,25,13,11,16.40
2011,09,25,13,12,16.40
2011,09,25,13,13,16.40
2011,09,25,13,14,16.40
2011,09,25,13,16,16.40
2011,09,25,13,17,16.40
2011,09,25,13,18,16.40
2011,09,25,13,19,16.40
2011,09,25,13,20,16.40
2011,09,25,13,22,16.50
2011,09,25,13,23,16.40
2011,09,25,13,24,16.40
2011,09,25,13,25,16.30
2011,09,25,13,26,16.30
2011,09,25,13,27,16.20
2011,09,25,13,28,16.20
2011,09,25,13,29,16.20
2011,09,25,13,30,16.10
2011,09,25,13,31,16.10
2011,09,25,13,32,16.10
2011,09,25,13,33,16.00
2011,09,25,13,35,15.90
2011,09,25,13,36,15.80
2011,09,25,13,37,15.80
2011,09,25,13,38,15.80
2011,09,25,13,40,15.70
2011,09,25,13,41,15.70
2011,09,25,13,42,15.60
2011,09,25,13,43,15.60
2011,09,25,13,45,15.50
2011,09,25,13,46,15.30
2011,09,25,13,47,15.20
2011,09,25,13,48,15.00
2011,09,25,13,49,14.90
2011,09,25,13,50,14.70
2011,09,25,13,51,14.50
2011,09,25,13,52,14.30
2011,09,25,13,53,14.20
2011,09,25,13,54,14.10
2011,09,25,13,55,14.00
2011,09,25,13,56,13.90
2011,09,25,13,57,13.70
2011,09,25,13,59,13.60
2011,09,25,14,00,13.40
2011,09,25,14,01,13.30
2011,09,25,14,02,13.20
2011,09,25,14,04,13.20
2011,09,25,14,05,13.10
2011,09,25,14,06,13.10
2011,09,25,14,07,13.10
2011,09,25,14,09,13.10
2011,09,25,14,10,13.00
2011,09,25,14,11,13.00
2011,09,25,14,12,13.00
2011,09,25,14,14,13.00
2011,09,25,14,15,13.00
2011,09,25,14,16,13.00
2011,09,25,14,17,13.10
2011,09,25,14,19,13.10
2011,09,25,14,20,13.20
2011,09,25,14,21,13.30
2011,09,25,14,22,13.30
2011,09,25,14,23,13.40
2011,09,25,14,24,13.40
2011,09,25,14,25,13.50
2011,09,25,14,26,13.50
2011,09,25,14,27,13.60
2011,09,25,14,29,13.60
2011,09,25,14,30,13.60
2011,09,25,14,31,13.60
2011,09,25,14,32,13.60
2011,09,25,14,33,13.60
2011,09,25,14,34,13.60
2011,09,25,14,36,13.60
2011,09,25,14,37,13.60
2011,09,25,14,38,13.60
2011,09,25,14,39,13.70
2011,09,25,14,41,13.70
2011,09,25,14,42,13.70
2011,09,25,14,43,13.70
2011,09,25,14,44,13.80
2011,09,25,14,45,13.80
2011,09,25,14,46,13.80
2011,09,25,14,47,13.80
2011,09,25,14,48,13.90
2011,09,25,14,49,13.90
2011,09,25,14,51,13.90
2011,09,25,14,52,14.00
2011,09,25,14,53,14.10
2011,09,25,14,54,14.10
2011,09,25,14,55,14.20
2011,09,25,14,56,14.20
2011,09,25,14,57,14.30
2011,09,25,14,58,14.30
2011,09,25,14,59,14.30
2011,09,25,15,01,14.40
2011,09,25,15,02,14.40
2011,09,25,15,03,14.40
2011,09,25,15,04,14.40
2011,09,25,15,05,14.50
2011,09,25,15,06,14.50
2011,09,25,15,07,14.60
2011,09,25,15,08,14.60
2011,09,25,15,09,14.60
2011,09,25,15,10,14.70
2011,09,25,15,11,14.70
2011,09,25,15,12,14.70
2011,09,25,15,13,14.70
2011,09,25,15,14,14.70
2011,09,25,15,15,14.80
2011,09,25,15,16,14.80
2011,09,25,15,17,14.90
2011,09,25,15,18,14.90
2011,09,25,15,19,14.90
2011,09,25,15,20,14.90
2011,09,25,15,22,15.00
2011,09,25,15,23,15.10
2011,09,25,15,24,15.10
2011,09,25,15,25,15.10
2011,09,25,15,27,15.00
2011,09,25,15,28,15.00
2011,09,25,15,29,15.00
2011,09,25,15,30,15.00
2011,09,25,15,32,15.00
2011,09,25,15,33,15.00
2011,09,25,15,34,14.90
2011,09,25,15,35,14.90
2011,09,25,15,37,14.90
2011,09,25,15,38,14.90
2011,09,25,15,39,14.90
2011,09,25,15,40,15.00
2011,09,25,15,41,15.00
2011,09,25,15,42,15.00
2011,09,25,15,43,15.00
2011,09,25,15,44,15.10
2011,09,25,15,45,15.10
2011,09,25,15,46,15.10
2011,09,25,15,47,15.10
2011,09,25,15,48,15.10
2011,09,25,15,49,15.00
2011,09,25,15,50,15.00
2011,09,25,15,51,15.10
2011,09,25,15,52,15.10
2011,09,25,15,53,15.10
2011,09,25,15,54,15.20
2011,09,25,15,55,15.20
2011,09,25,15,56,15.30
2011,09,25,15,57,15.20
2011,09,25,15,58,15.20
2011,09,25,15,59,15.20
2011,09,25,16,00,15.20
2011,09,25,16,01,15.20
2011,09,25,16,02,15.20
2011,09,25,16,03,15.30
2011,09,25,16,04,15.30
2011,09,25,16,05,15.20
2011,09,25,16,06,15.20
2011,09,25,16,07,15.20
2011,09,25,16,08,15.10
2011,09,25,16,10,15.10
2011,09,25,16,11,15.10
2011,09,25,16,12,15.10
2011,09,25,16,13,15.10
2011,09,25,16,14,15.10
2011,09,25,16,16,15.20
2011,09,25,16,17,15.30
2011,09,25,16,18,15.40
2011,09,25,16,19,15.40
2011,09,25,16,21,15.40
2011,09,25,16,22,15.30
2011,09,25,16,23,15.30
2011,09,25,16,25,15.20
2011,09,25,16,26,15.10
2011,09,25,16,27,15.10
2011,09,25,16,28,15.10
2011,09,25,16,29,15.10
2011,09,25,16,30,15.20
2011,09,25,16,31,15.30
2011,09,25,16,32,15.40
2011,09,25,16,34,15.60
2011,09,25,16,35,15.70
2011,09,25,16,36,15.70
2011,09,25,16,37,15.80
2011,09,25,16,39,15.90
2011,09,25,16,40,15.90
2011,09,25,16,41,15.90
2011,09,25,16,42,15.90
2011,09,25,16,44,15.80
2011,09,25,16,45,15.60
2011,09,25,16,46,15.60
2011,09,25,16,48,15.50
2011,09,25,16,49,15.50
2011,09,25,16,50,15.60
2011,09,25,16,51,15.60
2011,09,25,16,52,15.70
2011,09,25,16,54,15.80
2011,09,25,16,55,15.90
2011,09,25,16,56,15.90
2011,09,25,16,57,16.00
2011,09,25,16,59,16.00
2011,09,25,17,00,15.90
2011,09,25,17,01,15.90
2011,09,25,17,02,15.90
2011,09,25,17,04,16.00
2011,09,25,17,05,16.00
2011,09,25,17,06,16.00
2011,09,25,17,08,16.00
2011,09,25,17,09,16.10
2011,09,25,17,10,16.10
2011,09,25,17,11,16.10
2011,09,25,17,12,16.00
2011,09,25,17,14,16.00
2011,09,25,17,15,15.90
2011,09,25,17,16,16.00
2011,09,25,17,17,16.00
2011,09,25,17,18,16.00
2011,09,25,17,20,16.00
2011,09,25,17,21,16.00
2011,09,25,17,22,16.10
2011,09,25,17,23,16.10
2011,09,25,17,24,16.10
2011,09,25,17,26,16.10
2011,09,25,17,27,16.10
2011,09,25,17,28,16.10
2011,09,25,17,30,16.00
2011,09,25,17,31,16.10
2011,09,25,17,32,16.10
2011,09,25,17,34,16.20
2011,09,25,17,35,16.20
2011,09,25,17,36,16.20
2011,09,25,17,37,16.20
2011,09,25,17,39,16.20
2011,09,25,17,40,16.10
2011,09,25,17,41,16.10
2011,09,25,17,42,16.10
2011,09,25,17,44,16.10
2011,09,25,17,45,16.00
2011,09,25,17,46,15.90
2011,09,25,17,47,15.90
2011,09,25,17,48,15.90
2011,09,25,17,49,15.90
2011,09,25,17,50,15.90
2011,09,25,17,51,15.80
2011,09,25,17,52,15.80
2011,09,25,17,54,15.80
2011,09,25,17,55,15.80
2011,09,25,17,56,15.90
2011,09,25,17,57,15.90
2011,09,25,17,59,15.90
2011,09,25,18,00,15.90
2011,09,25,18,01,15.90
2011,09,25,18,02,15.90
2011,09,25,18,04,15.80
2011,09,25,18,05,15.80
2011,09,25,18,06,15.80
2011,09,25,18,07,15.80
2011,09,25,18,08,15.80
2011,09,25,18,09,15.80
2011,09,25,18,10,15.80
2011,09,25,18,11,15.70
2011,09,25,18,12,15.70
2011,09,25,18,13,15.70
2011,09,25,18,14,15.70
2011,09,25,18,15,15.70
2011,09,25,18,16,15.70
2011,09,25,18,17,15.70
2011,09,25,18,19,15.70
2011,09,25,18,20,15.70
2011,09,25,18,21,15.70
2011,09,25,18,22,15.70
2011,09,25,18,23,15.70
2011,09,25,18,24,15.60
2011,09,25,18,25,15.60
2011,09,25,18,26,15.60
2011,09,25,18,27,15.60
2011,09,25,18,29,15.60
2011,09,25,18,30,15.60
2011,09,25,18,31,15.60
2011,09,25,18,32,15.60
2011,09,25,18,34,15.50
2011,09,25,18,35,15.60
2011,09,25,18,36,15.50
2011,09,25,18,37,15.50
2011,09,25,18,39,15.40
2011,09,25,18,40,15.40
2011,09,25,18,41,15.40
2011,09,25,18,42,15.30
2011,09,25,18,43,15.30
2011,09,25,18,44,15.20
2011,09,25,18,45,15.20
2011,09,25,18,46,15.20
2011,09,25,18,47,15.10
2011,09,25,18,49,15.10
2011,09,25,18,50,15.00
2011,09,25,18,51,14.90
2011,09,25,18,52,14.90
2011,09,25,18,53,14.90
2011,09,25,18,54,14.80
2011,09,25,18,55,14.80
2011,09,25,18,56,14.80
2011,09,25,18,57,14.70
2011,09,25,18,59,14.70
2011,09,25,19,00,14.70
2011,09,25,19,01,14.70
2011,09,25,19,02,14.70
2011,09,25,19,03,14.60
2011,09,25,19,04,14.60
2011,09,25,19,05,14.60
2011,09,25,19,06,14.60
2011,09,25,19,07,14.60
2011,09,25,19,09,14.60
2011,09,25,19,10,14.50
2011,09,25,19,11,14.50
2011,09,25,19,12,14.40
2011,09,25,19,14,14.40
2011,09,25,19,15,14.40
2011,09,25,19,16,14.40
2011,09,25,19,17,14.40
2011,09,25,19,18,14.40
2011,09,25,19,19,14.40
2011,09,25,19,20,14.30
2011,09,25,19,21,14.30
2011,09,25,19,22,14.30
2011,09,25,19,23,14.30
2011,09,25,19,24,14.30
2011,09,25,19,25,14.30
2011,09,25,19,26,14.20
2011,09,25,19,27,14.20
2011,09,25,19,28,14.20
2011,09,25,19,30,14.20
2011,09,25,19,31,14.10
2011,09,25,19,32,14.10
2011,09,25,19,33,14.10
2011,09,25,19,34,14.00
2011,09,25,19,35,13.90
2011,09,25,19,36,13.90
2011,09,25,19,37,13.90
2011,09,25,19,38,13.90
2011,09,25,19,40,13.80
2011,09,25,19,41,13.80
2011,09,25,19,42,13.80
2011,09,25,19,43,13.70
2011,09,25,19,44,13.70
2011,09,25,19,45,13.70
2011,09,25,19,46,13.70
2011,09,25,19,47,13.70
2011,09,25,19,48,13.70
2011,09,25,19,49,13.70
2011,09,25,19,50,13.70
2011,09,25,19,51,13.70
2011,09,25,19,52,13.70
2011,09,25,19,53,13.60
2011,09,25,19,55,13.60
2011,09,25,19,56,13.60
2011,09,25,19,57,13.60
2011,09,25,19,58,13.60
2011,09,25,19,59,13.60
2011,09,25,20,00,13.60
2011,09,25,20,01,13.60
2011,09,25,20,02,13.60
2011,09,25,20,03,13.60
2011,09,25,20,04,13.60
2011,09,25,20,05,13.60
2011,09,25,20,06,13.50
2011,09,25,20,07,13.50
2011,09,25,20,08,13.50
2011,09,25,20,09,13.40
2011,09,25,20,10,13.40
2011,09,25,20,11,13.40
2011,09,25,20,12,13.40
2011,09,25,20,14,13.40